Flag for Germany Weather past 2 weeks in Voerde (Niederrhein), North Rhine-Westphalia, Germany

Now
52 °F

Partly sunny.


Feels Like: 48 °F
Forecast: 44 / 55 °F
Wind: 9 mph from Northwest

Location: Duesseldorf

Current Time: Oct 22, 2014 at 2:27:52 PM

Latest Report: Oct 22, 2014 at 2:00 PM


Visibility: 13 mi

Pressure: 30.05 "Hg

Humidity: 74%

Dew point: 44 °F

Location of Voerde (Niederrhein)Location

Historic Weather in Voerde (Niederrhein) — Graph

°F

Voerde (Niederrhein) temperature yesterday

Maximum temperature yesterday: 56 °F (at 4:00 PM)
Minimum temperature yesterday: 44 °F (at 11:00 PM)
Average temperature yesterday: 52 °F

Past Weeks' High & Low Weather Summary

 TemperatureHumidityPressure
High74 °F (Oct 19, 2:00 PM)99% (Oct 11, 8:00 AM)30.10 "Hg (Oct 11, 8:00 AM)
Low44 °F (Oct 21, 11:00 PM)54% (Oct 14, 3:00 PM)29.50 "Hg (Oct 21, 4:00 PM)
Average58 °F82%29.84 "Hg
* Reported Oct 7 1:00 PM — Oct 22 1:00 PM, Voerde (Niederrhein), Weather by CustomWeather, © 2014

Note: Actual official high and low records may vary slightly from our data, if they occured in-between our weather recording intervals... More about our weather records

Advertising

Voerde (Niederrhein) weather history for previous 24 hours

 ConditionsComfort  
Time TempWeatherWind HumidityBarometerVisibility
1:00 PM
Oct 22
51 °FPartly sunny.8 mph76%30.05 "Hg16 mi
12:00 PM49 °FPartly sunny.8 mph80%30.04 "Hg19 mi
10:00 AM45 °FSprinkles. Low clouds.7 mph90%30.02 "Hg14 mi
9:00 AM46 °FOvercast.7 mph84%30.00 "Hg17 mi
8:00 AM46 °FSprinkles. Low clouds.8 mph84%29.97 "Hg16 mi
7:00 AM46 °FPassing clouds.8 mph83%29.95 "Hg19 mi
6:00 AM46 °FPassing clouds.7 mph82%29.93 "Hg19 mi
4:00 AM45 °FPassing clouds.7 mph87%29.90 "Hg25 mi
3:00 AM46 °FLight rain. Overcast.7 mph85%29.89 "Hg19 mi
2:00 AM45 °FSprinkles. Overcast.7 mph89%29.86 "Hg19 mi
1:00 AM46 °FSprinkles. Overcast.7 mph87%29.85 "Hg22 mi
12:00 AM45 °FSprinkles. Overcast.7 mph89%29.81 "Hg17 mi
11:00 PM
Oct 21
44 °FLight rain. Overcast.7 mph90%29.78 "Hg5 mi
10:00 PM47 °FPassing clouds.7 mph83%29.72 "Hg22 mi
9:00 PM48 °FPassing clouds.8 mph81%29.68 "Hg25 mi
8:00 PM49 °FPassing clouds.8 mph78%29.66 "Hg19 mi
7:00 PM49 °FSprinkles. Overcast.13 mph83%29.62 "Hg9 mi
6:00 PM52 °FSprinkles. Overcast.10 mph81%29.58 "Hg9 mi
4:00 PM56 °FLow clouds.10 mph84%29.50 "Hg12 mi
3:00 PM56 °FLow clouds.10 mph82%29.54 "Hg16 mi
2:00 PM54 °FLow clouds.9 mph89%29.60 "Hg12 mi
Weather by CustomWeather, © 2014

See weather overviewHow to use our weather pages